Tracking 19564 objects as of 19-Mar-2019
HD Live streaming from Space Station
objects crossing your sky now

XY S 1

Track XY S 1 now!
10-day predictions


NORAD ID: 41913
Int'l Code: 2017-002A
Perigee: 530.2 km
Apogee: 549.8 km
Inclination: 97.5 °
Period: 95.3 minutes
Semi major axis: 6911 km
RCS: Unknown
Launch date: January 9, 2017
Source: People's Republic of China (PRC)
Launch site: Jiuquan Satellite Launch Center, China (JSC)
aabbcc
Your satellite tracking list
Your tracking list is empty




NASA's NSSDC Master Catalog

Two Line Element Set (TLE):
1 41913U 17002A   19077.75633313  .00000660  00000-0  43115-4 0  9993
2 41913  97.4520 148.1609 0014217  53.0536  41.8595 15.11091001120535
Source of the keplerian elements: AFSPC